Showing default

KUIPER-00083, 64829

Orbit data source: Space-Track

KUIPER-00083, 64829 is a payload satellite owned by Kuiper Systems (US) in LEO that was launched on Wed, 16 Jul 2025 UTC via an FALCON 9 launch vehicle from the Air Force Eastern Test Range (AFETR). Payload-class satellites include a variety of spacecraft equipped with specific instruments for various scientific and technological missions. These include communications satellites like Starlink; space stations such as the ISS; scientific satellites like the Hubble; Earth observation satellites from companies like Planet Labs, Umbra, and HawkEye 360; GPS; miniature CubeSats for education and research; and military/defense satellites.

Loading next visibility...
Identifier
64829, 2025-151P
Orbit
LEO
Country
Flag of USUS
Related business
Manufacturer
Kuiper Systems
Mission
Operational Commercial Communications
Bus & Motor
KUIPER, Unknown motor
Mass
~490 kg wet, ~490 kg dry
Launch date (UTC)
2025-07-16 (11 months ago)
Launch vehicle
FALCON 9
Launch site
Air Force Eastern Test Range (AFETR)
Object type
Payload
Rocket body
Debris
Shape & HBR
Box + 2 Pan, 3.4 m
Radar Cross Section
2.326 m², Large (>1 m²)

Expand to show TLE details & history
Last TLE update: 18 hours ago

TLE from 18 hours ago
0 KUIPER-00083
1 64829U 25151P   26166.41360913  .00000295  00000-0  67755-4 0  9991
2 64829  51.8997 223.4642 0000486 100.8463 259.2555 14.79931577 51038
Epoch: 2026-06-15T09:55Z
TLE epoch observation values (Epoch: 2026-06-15T09:55:35.828Z)
Latitude
0.00004°
Longitude
170.8646°
Altitude
630.35 km
Speed
7.544 km/s
True Right ascension
14h 53m 51s
True Declination
0° 00' 00"
Sunlit
Object was in full shadow at epoch
Visualization orbit readout
Latitude
Unknown
Longitude
Unknown
Altitude
Unknown
Speed
Unknown
Apparent Right ascension
Unknown
Apparent Declination
Unknown
Sunlit
N/A
Visualization observer readout
Local Sidereal Time
14:42:09
Azimuth
Unknown
Elevation
Unknown
Doppler factor
Unknown
Orbital elements
Apogee altitude
630.332 km
Perigee altitude
629.651 km
Semi-major axis
7,008.128 km
Eccentricity
0.00005
Inclination
51.8997°
RAAN
223.4642°
Arg. of periapsis
100.8463°
True anomaly
259.25003°
Mean anomaly
259.2555°
Eccentric anomaly
259.25276°
Mean motion
3.69948 °/min
Orbital period
97.31 mins
BSTAR
0.000067755
Loading maneuver chart data...
Computing Atmospheric mass density...
Loading historical data...
Loading historical data...
Loading historical data...
Loading historical data...
Loading historical data...
Loading historical data...
Loading historical data...

Documentation

Showing up to 5 results
|